Location: *
(48.8780°N, 19.2358°E)
Time: 00:36:04
(UTC+00:00)

STARLINK-32 - Pass Details

Date: 18 October 2019
Orbit: 548 x 551 km, 53.0° (Epoch: 12 November)

Event Time Altitude Azimuth Distance (km) Brightness Sun altitude
Rises 16:50:17 0° 259° (W) 2,712 9.2 -10.9°
Reaches altitude 10° 16:52:32 10° 263° (W) 1,821 7.8 -11.3°
Maximum altitude 16:56:38 60° 344° (NNW) 630 4.0 -11.9°
Enters shadow 16:59:49 16° 62° (ENE) 1,468 5.3 -12.5°
